Location: Cosy Dell
(34.2789°N, 117.4537°W)
Time: 00:46:26
(UTC+00:00)

Cosmos 1818 - Pass Details

Date: 14 July 2020
Orbit: 777 x 796 km, 65.0° (Epoch: 12 August)

Event Time Altitude Azimuth Distance (km) Brightness Sun altitude
Rises 11:25:05 0° 331° (NNW) 3,302 6.9 -15.2°
Reaches altitude 10° 11:27:31 10° 332° (NNW) 2,369 6.2 -14.8°
Maximum altitude 11:32:59 85° 60° (ENE) 801 3.6 -14.0°
Drops below altitude 10° 11:38:24 10° 151° (SSE) 2,350 5.9 -13.1°
Sets 11:40:49 0° 152° (SSE) 3,273 6.7 -12.7°
